UCA401 KATL-KMYR

Flight info

Callsign UCA401
Flight time 0h 57m
Altitude 29000
Route GAIRY2 IRQ CAE
Aircraft E145/M-SABDFGRW/S

Departure

Time 2026-05-04 21:39
Airport Hartsfield Jackson Atlanta International Airport (KATL)

Arrival

Time 2026-05-04 22:37
Airport Myrtle Beach International Airport (KMYR)
Time Latitude Longitude Altitude Speed Heading
2026-05-04 21:20 33.63823 -84.42985 1004 ft 0 kts 90°
2026-05-04 21:30 33.63823 -84.42999 1004 ft 2 kts 90°
2026-05-04 21:30 33.63823 -84.43017 1004 ft 2 kts 90°
2026-05-04 21:30 33.63823 -84.43035 1004 ft 2 kts 90°
2026-05-04 21:30 33.63823 -84.43053 1004 ft 2 kts 90°
2026-05-04 21:31 33.63823 -84.43063 1004 ft 0 kts 90°
2026-05-04 21:32 33.63823 -84.43062 1004 ft 0 kts 91°
2026-05-04 21:32 33.63811 -84.43049 1004 ft 5 kts 169°
2026-05-04 21:33 33.63754 -84.43061 1004 ft 9 kts 188°
2026-05-04 21:33 33.63688 -84.43049 1004 ft 10 kts 147°
2026-05-04 21:33 33.63665 -84.42941 1003 ft 16 kts 91°
2026-05-04 21:33 33.63663 -84.42788 1000 ft 19 kts 95°
2026-05-04 21:34 33.63656 -84.42697 999 ft 21 kts 92°
2026-05-04 21:34 33.63654 -84.42446 993 ft 24 kts 91°
2026-05-04 21:34 33.63655 -84.42246 986 ft 28 kts 90°
2026-05-04 21:35 33.63654 -84.42169 983 ft 19 kts 90°
2026-05-04 21:35 33.63654 -84.41988 975 ft 24 kts 90°
2026-05-04 21:35 33.63655 -84.41762 966 ft 29 kts 89°
2026-05-04 21:35 33.63655 -84.41510 961 ft 31 kts 90°
2026-05-04 21:36 33.63655 -84.41297 960 ft 19 kts 90°
2026-05-04 21:36 33.63654 -84.41130 960 ft 21 kts 90°
2026-05-04 21:36 33.63654 -84.40950 955 ft 11 kts 93°
2026-05-04 21:36 33.63626 -84.40909 954 ft 8 kts 169°
2026-05-04 21:37 33.63591 -84.40908 954 ft 0 kts 180°
2026-05-04 21:38 33.63584 -84.40908 954 ft 3 kts 179°
2026-05-04 21:38 33.63513 -84.40911 954 ft 14 kts 195°
2026-05-04 21:38 33.63471 -84.41007 957 ft 18 kts 270°
2026-05-04 21:38 33.63473 -84.41407 962 ft 81 kts 270°
2026-05-04 21:39 33.63473 -84.42314 989 ft 133 kts 269°
2026-05-04 21:39 33.63488 -84.43516 1194 ft 151 kts 268°
2026-05-04 21:39 33.63513 -84.44842 1594 ft 166 kts 268°
2026-05-04 21:39 33.63530 -84.46241 2147 ft 174 kts 267°
2026-05-04 21:40 33.63206 -84.47666 2607 ft 188 kts 235°
2026-05-04 21:40 33.62517 -84.49058 3119 ft 207 kts 241°
2026-05-04 21:40 33.62104 -84.50040 3132 ft 234 kts 243°
2026-05-04 21:40 33.61369 -84.51885 3508 ft 253 kts 244°
2026-05-04 21:41 33.60625 -84.53793 4225 ft 255 kts 244°
2026-05-04 21:41 33.59883 -84.55704 4946 ft 256 kts 244°
2026-05-04 21:41 33.58932 -84.57486 5582 ft 258 kts 223°
2026-05-04 21:41 33.57361 -84.58482 6191 ft 261 kts 192°
2026-05-04 21:42 33.55549 -84.58508 6845 ft 263 kts 178°
2026-05-04 21:42 33.53725 -84.58469 7534 ft 263 kts 181°
2026-05-04 21:42 33.51878 -84.58459 8184 ft 265 kts 181°
2026-05-04 21:42 33.50025 -84.58455 8828 ft 267 kts 181°
2026-05-04 21:43 33.48179 -84.58306 9435 ft 270 kts 166°
2026-05-04 21:43 33.46547 -84.57188 9966 ft 278 kts 136°
2026-05-04 21:43 33.45565 -84.55186 10477 ft 287 kts 107°
2026-05-04 21:43 33.45500 -84.52802 10994 ft 293 kts 82°
2026-05-04 21:44 33.45650 -84.50370 11541 ft 295 kts 91°
2026-05-04 21:44 33.45657 -84.47904 12081 ft 298 kts 91°
2026-05-04 21:44 33.45648 -84.45413 12626 ft 301 kts 91°
2026-05-04 21:44 33.45636 -84.42895 13108 ft 305 kts 90°
2026-05-04 21:45 33.45622 -84.40354 13637 ft 308 kts 90°
2026-05-04 21:45 33.45608 -84.37772 13942 ft 319 kts 90°
2026-05-04 21:45 33.45591 -84.35017 13951 ft 339 kts 91°
2026-05-04 21:45 33.45692 -84.32138 14153 ft 351 kts 84°
2026-05-04 21:46 33.45935 -84.29224 14659 ft 352 kts 84°
2026-05-04 21:46 33.46168 -84.26309 15145 ft 354 kts 84°
2026-05-04 21:46 33.46403 -84.23369 15567 ft 358 kts 84°
2026-05-04 21:46 33.46639 -84.20399 15980 ft 361 kts 84°
2026-05-04 21:47 33.46875 -84.17415 16465 ft 362 kts 84°
2026-05-04 21:47 33.47112 -84.14409 16900 ft 365 kts 84°
2026-05-04 21:47 33.47351 -84.11373 17271 ft 369 kts 84°
2026-05-04 21:47 33.47592 -84.08302 17705 ft 371 kts 85°
2026-05-04 21:48 33.47832 -84.05226 18098 ft 374 kts 84°
2026-05-04 21:48 33.48074 -84.02127 18526 ft 376 kts 84°
2026-05-04 21:48 33.48316 -83.99003 18873 ft 380 kts 84°
2026-05-04 21:48 33.48561 -83.95848 19222 ft 383 kts 84°
2026-05-04 21:49 33.48806 -83.92671 19626 ft 385 kts 84°
2026-05-04 21:49 33.49054 -83.89447 19979 ft 388 kts 84°
2026-05-04 21:49 33.49302 -83.86215 20335 ft 391 kts 84°
2026-05-04 21:49 33.49550 -83.82959 20696 ft 394 kts 84°
2026-05-04 21:50 33.49800 -83.79678 21031 ft 397 kts 84°
2026-05-04 21:50 33.50051 -83.76369 21377 ft 399 kts 84°
2026-05-04 21:50 33.50303 -83.73044 21701 ft 403 kts 84°
2026-05-04 21:50 33.50554 -83.69701 22013 ft 406 kts 84°
2026-05-04 21:51 33.50807 -83.66335 22346 ft 408 kts 84°
2026-05-04 21:51 33.51017 -83.62950 22707 ft 410 kts 89°
2026-05-04 21:51 33.51213 -83.59556 22977 ft 412 kts 76°
2026-05-04 21:51 33.51929 -83.56240 23257 ft 414 kts 76°
2026-05-04 21:52 33.52486 -83.52851 23594 ft 417 kts 78°
2026-05-04 21:52 33.53153 -83.48283 24056 ft 419 kts 79°
2026-05-04 21:52 33.53475 -83.45991 24242 ft 421 kts 79°
2026-05-04 21:52 33.53957 -83.42531 24542 ft 423 kts 79°
2026-05-04 21:53 33.54437 -83.39054 24875 ft 425 kts 79°
2026-05-04 21:53 33.54918 -83.35564 25196 ft 426 kts 79°
2026-05-04 21:53 33.55400 -83.32063 25476 ft 428 kts 79°
2026-05-04 21:53 33.55880 -83.28556 25859 ft 427 kts 79°
2026-05-04 21:54 33.56359 -83.25058 26231 ft 426 kts 79°
2026-05-04 21:54 33.56836 -83.21561 26560 ft 427 kts 79°
2026-05-04 21:54 33.57316 -83.18042 26948 ft 426 kts 79°
2026-05-04 21:54 33.57790 -83.14552 27307 ft 425 kts 79°
2026-05-04 21:55 33.58263 -83.11068 27683 ft 424 kts 79°
2026-05-04 21:55 33.58735 -83.07582 27999 ft 425 kts 79°
2026-05-04 21:55 33.59206 -83.04091 28346 ft 425 kts 79°
2026-05-04 21:55 33.59682 -83.00564 28660 ft 426 kts 79°
2026-05-04 21:56 33.60154 -82.97049 28986 ft 426 kts 79°
2026-05-04 21:56 33.61124 -82.89813 29027 ft 443 kts 79°
2026-05-04 21:57 33.62114 -82.82392 29020 ft 456 kts 79°
2026-05-04 21:57 33.63119 -82.74827 29014 ft 464 kts 79°
2026-05-04 21:58 33.64133 -82.67152 29025 ft 470 kts 79°
2026-05-04 21:58 33.65156 -82.59369 29023 ft 476 kts 79°
2026-05-04 21:59 33.66185 -82.51499 29025 ft 479 kts 79°
2026-05-04 21:59 33.67211 -82.43614 29019 ft 479 kts 79°
2026-05-04 22:00 33.68231 -82.35737 29015 ft 479 kts 79°
2026-05-04 22:00 33.69246 -82.27857 29003 ft 479 kts 79°
2026-05-04 22:01 33.70255 -82.19981 29007 ft 478 kts 79°
2026-05-04 22:01 33.71277 -82.12117 29012 ft 477 kts 78°
2026-05-04 22:02 33.72397 -82.04293 29017 ft 477 kts 78°
2026-05-04 22:02 33.73478 -81.96505 29016 ft 472 kts 78°
2026-05-04 22:03 33.74544 -81.88778 29021 ft 468 kts 79°
2026-05-04 22:03 33.75599 -81.81094 29031 ft 465 kts 79°
2026-05-04 22:04 33.76641 -81.73472 29038 ft 462 kts 79°
2026-05-04 22:04 33.77675 -81.65873 29036 ft 460 kts 79°
2026-05-04 22:05 33.78698 -81.58316 29037 ft 459 kts 78°
2026-05-04 22:05 33.79714 -81.50775 29033 ft 457 kts 79°
2026-05-04 22:06 33.80723 -81.43247 29030 ft 456 kts 79°
2026-05-04 22:06 33.81727 -81.35727 29027 ft 456 kts 79°
2026-05-04 22:07 33.82722 -81.28233 29018 ft 455 kts 79°
2026-05-04 22:07 33.83710 -81.20756 29016 ft 454 kts 79°
2026-05-04 22:08 33.84693 -81.13291 29018 ft 452 kts 79°
2026-05-04 22:08 33.85567 -81.05807 29018 ft 452 kts 86°
2026-05-04 22:09 33.85197 -80.98281 29021 ft 452 kts 95°
2026-05-04 22:09 33.84622 -80.90764 29010 ft 452 kts 95°
2026-05-04 22:10 33.84048 -80.83252 29022 ft 452 kts 95°
2026-05-04 22:10 33.83471 -80.75744 29017 ft 452 kts 95°
2026-05-04 22:11 33.82889 -80.68240 29023 ft 451 kts 95°
2026-05-04 22:11 33.82300 -80.60744 28990 ft 453 kts 95°
2026-05-04 22:11 33.82003 -80.57007 28467 ft 448 kts 95°
2026-05-04 22:12 33.81709 -80.53318 27951 ft 441 kts 95°
2026-05-04 22:12 33.81409 -80.49690 27437 ft 435 kts 93°
2026-05-04 22:12 33.81399 -80.46098 26923 ft 428 kts 85°
2026-05-04 22:12 33.81565 -80.42563 26418 ft 422 kts 85°
2026-05-04 22:13 33.81717 -80.39062 25909 ft 418 kts 85°
2026-05-04 22:13 33.81865 -80.35597 25399 ft 414 kts 85°
2026-05-04 22:13 33.82011 -80.32162 24879 ft 410 kts 86°
2026-05-04 22:13 33.82154 -80.28772 24338 ft 406 kts 85°
2026-05-04 22:14 33.82295 -80.25409 23795 ft 402 kts 85°
2026-05-04 22:14 33.82434 -80.22078 23273 ft 399 kts 85°
2026-05-04 22:14 33.82570 -80.18769 22754 ft 396 kts 85°
2026-05-04 22:14 33.82705 -80.15491 22239 ft 392 kts 85°
2026-05-04 22:15 33.82838 -80.12238 21736 ft 389 kts 85°
2026-05-04 22:15 33.82969 -80.09010 21216 ft 385 kts 85°
2026-05-04 22:15 33.83097 -80.05815 20698 ft 382 kts 85°
2026-05-04 22:15 33.83224 -80.02649 20190 ft 379 kts 85°
2026-05-04 22:16 33.83349 -79.99509 19686 ft 376 kts 85°
2026-05-04 22:16 33.83472 -79.96397 19159 ft 372 kts 85°
2026-05-04 22:16 33.83594 -79.93308 18662 ft 369 kts 85°
2026-05-04 22:16 33.83713 -79.90248 18153 ft 366 kts 86°
2026-05-04 22:17 33.83830 -79.87230 17597 ft 359 kts 85°
2026-05-04 22:17 33.83944 -79.84266 17119 ft 353 kts 85°
2026-05-04 22:17 33.84056 -79.81352 16618 ft 348 kts 85°
2026-05-04 22:17 33.84165 -79.78475 16124 ft 343 kts 85°
2026-05-04 22:18 33.84273 -79.75639 15642 ft 338 kts 86°
2026-05-04 22:18 33.84378 -79.72840 15135 ft 334 kts 86°
2026-05-04 22:18 33.84481 -79.70076 14651 ft 330 kts 86°
2026-05-04 22:18 33.84583 -79.67345 14178 ft 326 kts 85°
2026-05-04 22:19 33.84682 -79.64646 13662 ft 323 kts 85°
2026-05-04 22:19 33.84781 -79.61970 13201 ft 320 kts 86°
2026-05-04 22:19 33.84877 -79.59320 12719 ft 317 kts 85°
2026-05-04 22:19 33.84972 -79.56696 12233 ft 314 kts 85°
2026-05-04 22:20 33.85067 -79.54091 11732 ft 311 kts 85°
2026-05-04 22:20 33.85159 -79.51511 11243 ft 309 kts 85°
2026-05-04 22:20 33.85250 -79.48948 10750 ft 307 kts 85°
2026-05-04 22:20 33.85341 -79.46405 10271 ft 304 kts 85°
2026-05-04 22:21 33.85430 -79.43880 9788 ft 302 kts 85°
2026-05-04 22:21 33.85518 -79.41373 9303 ft 300 kts 85°
2026-05-04 22:21 33.85605 -79.38878 8810 ft 299 kts 85°
2026-05-04 22:21 33.85691 -79.36396 8327 ft 297 kts 85°
2026-05-04 22:22 33.85775 -79.33943 7857 ft 289 kts 86°
2026-05-04 22:22 33.85854 -79.31610 7499 ft 273 kts 86°
2026-05-04 22:22 33.85932 -79.29336 7082 ft 273 kts 86°
2026-05-04 22:22 33.86009 -79.27063 6635 ft 273 kts 86°
2026-05-04 22:23 33.86086 -79.24787 6183 ft 272 kts 86°
2026-05-04 22:23 33.86160 -79.22575 5750 ft 258 kts 87°
2026-05-04 22:23 33.86231 -79.20442 5427 ft 255 kts 88°
2026-05-04 22:23 33.86302 -79.18315 5062 ft 256 kts 88°
2026-05-04 22:24 33.86372 -79.16182 4699 ft 256 kts 88°
2026-05-04 22:24 33.86443 -79.14049 4336 ft 256 kts 89°
2026-05-04 22:24 33.86512 -79.11915 3974 ft 256 kts 89°
2026-05-04 22:24 33.86581 -79.09784 3612 ft 255 kts 89°
2026-05-04 22:25 33.86650 -79.07658 3251 ft 255 kts 90°
2026-05-04 22:25 33.86718 -79.05531 2888 ft 255 kts 90°
2026-05-04 22:25 33.86786 -79.03413 2526 ft 254 kts 90°
2026-05-04 22:25 33.86853 -79.01321 2104 ft 245 kts 91°
2026-05-04 22:26 33.86916 -78.99365 1961 ft 222 kts 92°
2026-05-04 22:26 33.86979 -78.97582 1983 ft 211 kts 88°
2026-05-04 22:26 33.87561 -78.95974 1979 ft 214 kts 47°
2026-05-04 22:26 33.88874 -78.95152 1996 ft 222 kts
2026-05-04 22:27 33.90426 -78.95327 1996 ft 225 kts 348°
2026-05-04 22:27 33.91969 -78.95677 1970 ft 225 kts 348°
2026-05-04 22:27 33.93508 -78.96026 1969 ft 225 kts 348°
2026-05-04 22:27 33.95049 -78.96380 1968 ft 225 kts 348°
2026-05-04 22:28 33.96596 -78.96732 1964 ft 226 kts 348°
2026-05-04 22:28 33.98149 -78.97104 1963 ft 227 kts 342°
2026-05-04 22:28 33.99431 -78.98110 1979 ft 218 kts 303°
2026-05-04 22:28 33.99905 -78.99763 1982 ft 207 kts 263°
2026-05-04 22:29 33.99409 -79.01303 1976 ft 197 kts 223°
2026-05-04 22:29 33.98230 -79.02010 1972 ft 191 kts 182°
2026-05-04 22:29 33.96928 -79.01708 1978 ft 192 kts 162°
2026-05-04 22:29 33.95680 -79.01208 1995 ft 179 kts 163°
2026-05-04 22:30 33.94533 -79.00745 1957 ft 170 kts 163°
2026-05-04 22:30 33.93418 -79.00284 1964 ft 168 kts 163°
2026-05-04 22:30 33.92299 -78.99818 1973 ft 172 kts 163°
2026-05-04 22:30 33.91150 -78.99338 1972 ft 175 kts 162°
2026-05-04 22:31 33.90017 -78.98802 1968 ft 174 kts 159°
2026-05-04 22:31 33.88884 -78.98286 1963 ft 173 kts 164°
2026-05-04 22:31 33.87733 -78.97876 1965 ft 171 kts 167°
2026-05-04 22:31 33.86575 -78.97524 1969 ft 170 kts 168°
2026-05-04 22:32 33.85419 -78.97203 1968 ft 169 kts 169°
2026-05-04 22:32 33.84271 -78.96902 1998 ft 165 kts 169°
2026-05-04 22:32 33.83168 -78.96619 1969 ft 160 kts 169°
2026-05-04 22:32 33.82091 -78.96348 1967 ft 154 kts 169°
2026-05-04 22:33 33.81054 -78.96088 1964 ft 149 kts 169°
2026-05-04 22:33 33.80026 -78.95832 1972 ft 151 kts 169°
2026-05-04 22:33 33.78985 -78.95572 1897 ft 154 kts 169°
2026-05-04 22:33 33.78007 -78.95327 1708 ft 134 kts 170°
2026-05-04 22:34 33.77148 -78.95113 1560 ft 123 kts 170°
2026-05-04 22:34 33.76300 -78.94903 1414 ft 126 kts 170°
2026-05-04 22:34 33.75431 -78.94686 1253 ft 128 kts 169°
2026-05-04 22:34 33.74562 -78.94470 1081 ft 127 kts 169°
2026-05-04 22:35 33.73700 -78.94255 914 ft 126 kts 170°
2026-05-04 22:35 33.72831 -78.94039 748 ft 129 kts 169°
2026-05-04 22:35 33.71948 -78.93819 576 ft 129 kts 169°
2026-05-04 22:35 33.71059 -78.93598 407 ft 130 kts 169°
2026-05-04 22:36 33.70174 -78.93377 235 ft 129 kts 169°
2026-05-04 22:36 33.69294 -78.93157 85 ft 128 kts 170°
2026-05-04 22:36 33.68475 -78.92955 24 ft 104 kts 169°
2026-05-04 22:36 33.67946 -78.92825 23 ft 52 kts 168°
2026-05-04 22:37 33.67682 -78.92745 23 ft 30 kts 157°
2026-05-04 22:37 33.67546 -78.92642 23 ft 16 kts 141°
2026-05-04 22:37 33.67505 -78.92602 23 ft 4 kts 139°
2026-05-04 22:37 33.67480 -78.92549 23 ft 11 kts 83°
2026-05-04 22:38 33.67565 -78.92530 23 ft 15 kts 347°
2026-05-04 22:38 33.67678 -78.92558 23 ft 17 kts 348°
2026-05-04 22:38 33.67791 -78.92586 23 ft 13 kts 348°
2026-05-04 22:38 33.67871 -78.92586 23 ft 10 kts 44°
2026-05-04 22:39 33.67892 -78.92488 23 ft 10 kts 77°
2026-05-04 22:39 33.67907 -78.92445 23 ft 5 kts 36°
2026-05-04 22:39 33.67950 -78.92434 23 ft 6 kts
2026-05-04 22:39 33.67969 -78.92430 23 ft 0 kts
2026-05-04 22:40 33.67971 -78.92430 23 ft 0 kts